Location: ?????????
(41.2286°N, 23.0068°E)
Time: 09:23:44
(UTC+00:00)

NOSS 2-1 (E) - Pass Details

Date: 08 November 2025
Orbit: 385 x 1749 km, 63.3° (Epoch: 07 May)

Event Time Altitude Azimuth Distance (km) Brightness Sun altitude
Exits shadow 03:32:54 33° 337° (NNW) 784 3.8 -18.1°
Drops below altitude 10° 03:35:13 10° 18° (NNE) 1,490 5.7 -17.6°
Sets 03:37:12 0° 27° (NNE) 2,301 6.8 -17.3°
